Location: 476 Grange Obs.
(45.1421°N, 7.1417°E)
Time: 23:05:57
(UTC+01:00)

Envisat - Pass Details

Date: 21 October 2019
Orbit: 764 x 766 km, 98.1° (Epoch: 13 November)

Event Time Altitude Azimuth Distance (km) Brightness Sun altitude
Rises 20:31:55 0° 198° (SSW) 3,220 6.4 -21.0°
Reaches altitude 10° 20:34:36 10° 211° (SSW) 2,298 5.8 -21.4°
Maximum altitude 20:38:45 25° 267° (W) 1,502 5.3 -22.2°
Drops below altitude 10° 20:42:56 10° 322° (NW) 2,312 6.1 -22.9°
Sets 20:45:39 0° 336° (NNW) 3,243 6.7 -23.4°
